{"data":{"norad_id":53396,"intl_designator":"2022-097J","name":"STARLINK-4524","alt_names":[],"object_type":"PAYLOAD","status":"ACTIVE","operator":null,"country":"US","launch_date":"2022-08-10","launch_site_code":"AFETR","launch_vehicle":null,"mission":null,"orbit_class":"UNKNOWN","rcs_meters":null,"size_class":null,"mass_kg":null,"dimensions":null,"purposes":["comms"],"wikipedia_slug":null,"has_3d_model":false,"image_url":null,"decayed_at":null,"tle_current":{"epoch":"2026-09-19T21:29:48.604416Z","epoch_age_seconds":127564,"freshness":"FRESH","line1":"1 53396U 22097J   26262.89570144  .00000741  00000+0  32153-4 0  9991","line2":"2 53396  53.1617 325.2607 0001636 111.1476 248.9702 15.35388794227920","mean_motion":15.35388794,"eccentricity":0.0001636,"inclination_deg":53.1617,"raan_deg":325.2607,"arg_perigee_deg":111.1476,"mean_anomaly_deg":248.9702,"bstar":3.2153e-5,"rev_number":22792,"period_min":93.787319904069,"perigee_km":458.64723247413,"apogee_km":460.88459430739,"semimajor_km":6837.9029133908,"source":"CELESTRAK","updated_at":"2026-09-20T09:00:40.224373Z"}}}